Simultaneous Nadir Overpasses (SNOs) Predictions

Prediction of SNOs between NOAA-21 and LANDSAT-9 Satellite Orbit:

Table of predicted SNOs for the next 14.0 days since TLE Epoch: 6/1/2024
Index Date (NOAA-21) Time (NOAA-21) Lat,Lon (NOAA-21) SZA (NOAA-21 ) Date (LANDSAT-9) Time (LANDSAT-9) Lat,Lon (LANDSAT-9) SZA (LANDSAT-9 ) Distance(km) Time Diff (sec)
1 06/01/2024 14:27:37 70.61, -41.58 48.39 06/01/2024 14:28:47 70.53, -40.39 48.28 44.38 70
2 06/01/2024 15:18:11 -70.11, 126.53 132.14 06/01/2024 15:18:23 -70.09, 126.59 132.16 3.29 12
3 06/01/2024 16:08:55 69.97, -65.96 47.72 06/01/2024 16:07:50 69.99, -65.90 47.74 2.85 65
4 06/04/2024 06:44:28 70.14, 74.91 47.59 06/04/2024 06:45:23 70.15, 74.92 47.58 0.59 55
5 06/04/2024 07:35:09 -70.01,-117.57 132.56 06/04/2024 07:34:53 -70.04,-117.61 132.53 2.96 16
6 06/04/2024 08:25:40 69.19, 50.95 46.59 06/04/2024 08:24:32 69.27, 48.99 46.73 77.56 68
7 06/06/2024 23:01:27 70.11,-169.28 47.28 06/06/2024 23:01:52 70.12,-169.25 47.28 1.30 25
8 06/06/2024 23:52:08 -69.98, -1.76 132.86 06/06/2024 23:51:22 -70.01, -1.77 132.83 3.25 46
9 06/09/2024 14:27:41 -70.22, 139.01 132.84 06/09/2024 14:28:52 -70.22, 139.13 132.85 4.68 71
10 06/09/2024 15:18:24 70.04, -53.40 46.98 06/09/2024 15:18:20 70.06, -53.46 47.00 3.21 4
11 06/09/2024 16:09:04 -69.85, 114.20 133.23 06/09/2024 16:07:51 -69.90, 113.95 133.16 10.88 73
12 06/12/2024 06:44:39 -70.15,-105.13 133.09 06/12/2024 06:45:21 -70.14,-105.11 133.10 1.34 42
13 06/12/2024 07:35:23 70.03, 62.37 46.78 06/12/2024 07:34:48 70.03, 62.38 46.79 0.40 35
14 06/14/2024 22:11:03 70.60,-157.39 47.26 06/14/2024 22:12:13 70.52,-156.31 47.13 41.10 70
15 06/14/2024 23:01:37 -70.09, 10.73 133.28 06/14/2024 23:01:49 -70.08, 10.69 133.29 1.78 12
16 06/14/2024 23:52:21 69.97, 178.22 46.60 06/14/2024 23:51:16 69.97, 178.17 46.60 1.80 65



Historial Predications of SNOs between NOAA-21 and LANDSAT-9
